Date String (YYYY-MM-DD hh:mm:ss) UTC,Instrument flags,Ambient pressure (hPa),Sample flow (lpm),Bypass flow (lpm),Sample temperature (°C),Ambient temperature (°C),ASC tube jacket temperature (°C),LED temperature (°C),Box temperature (°C),Sample RH (%),Span deviation,Mass concentration (μg/m³),Mass concentration (μg/m³),Mass concentration (μg/m³)
DateTimeUTC,F1_M11,P_M11,Q1_M11,Q2_M11,T1_M11,T2_M11,T3_M11,T4_M11,T5_M11,U1_M11,ZSPAN_M11,X2_M11,X0_M11,X1_M11
2021-12-13 06:00:00,,0823.7,5.00,0.00,25.1,24.4,00.0,34.0,26.9,05.2,0000.0,0000.92,0002.47,0000.53
2021-12-13 06:01:00,,0823.7,5.00,0.00,25.1,24.4,00.0,34.0,26.9,05.2,0000.0,0000.93,0002.57,0000.52
2021-12-13 06:02:00,,0823.7,5.01,0.00,25.1,24.4,00.0,34.0,26.9,05.2,0000.0,0000.87,0002.45,0000.52
2021-12-13 06:03:00,,0823.7,5.00,0.00,25.1,24.4,00.0,34.0,26.9,05.2,0000.0,0000.82,0002.34,0000.51
2021-12-13 06:04:00,,0823.7,4.99,0.00,25.1,24.5,00.0,34.0,26.9,05.2,0000.0,0000.77,0002.20,0000.50
2021-12-13 06:05:00,,0823.7,5.01,0.00,25.1,24.5,00.0,34.0,26.9,05.2,0000.0,0000.73,0001.86,0000.51
2021-12-13 06:06:00,,0823.8,4.99,0.00,25.2,24.4,00.0,34.0,26.9,05.3,0000.0,0000.71,0001.68,0000.50
2021-12-13 06:07:00,,0823.7,5.00,0.00,25.2,24.5,00.0,34.0,26.9,05.3,0000.0,0000.73,0001.72,0000.50
2021-12-13 06:08:00,,0823.8,5.02,0.00,25.2,24.5,00.0,34.1,27.0,05.2,0000.0,0000.72,0001.78,0000.49
2021-12-13 06:09:00,,0823.8,4.98,0.00,25.2,24.5,00.0,34.1,26.9,05.2,0000.0,0000.73,0001.74,0000.50
2021-12-13 06:10:00,,0823.8,5.01,0.00,25.2,24.5,00.0,34.1,26.9,05.3,0000.0,0000.73,0001.41,0000.50
2021-12-13 06:11:00,,0823.8,4.99,0.00,25.2,24.5,00.0,34.1,26.9,05.3,0000.0,0000.71,0001.37,0000.50
2021-12-13 06:12:00,,0823.8,5.01,0.00,25.2,24.5,00.0,34.1,26.9,05.3,0000.0,0000.72,0001.37,0000.52
2021-12-13 06:13:00,,0823.8,4.99,0.00,25.2,24.5,00.0,34.1,26.9,05.3,0000.0,0000.75,0002.12,0000.54
2021-12-13 06:14:00,,0823.8,5.01,0.00,25.2,24.5,00.0,34.1,26.9,05.4,0000.0,0000.79,0002.16,0000.57
2021-12-13 06:15:00,,0823.8,4.98,0.00,25.2,24.5,00.0,34.1,27.0,05.4,0000.0,0000.81,0002.14,0000.59
2021-12-13 06:16:00,,0823.8,5.01,0.00,25.2,24.5,00.0,34.1,27.0,05.4,0000.0,0000.83,0002.16,0000.61
2021-12-13 06:17:00,,0823.8,4.99,0.00,25.2,24.5,00.0,34.1,27.0,05.4,0000.0,0000.84,0002.21,0000.62
2021-12-13 06:18:00,,0823.8,5.01,0.00,25.2,24.5,00.0,34.1,27.0,05.4,0000.0,0000.85,0002.22,0000.63
2021-12-13 06:19:00,,0823.8,5.00,0.00,25.2,24.5,00.0,34.1,27.0,05.4,0000.0,0000.88,0002.28,0000.64
2021-12-13 06:20:00,,0823.8,5.00,0.00,25.2,24.5,00.0,34.1,27.0,05.4,0000.0,0000.91,0002.41,0000.66
2021-12-13 06:21:00,,0823.8,5.01,0.00,25.2,24.5,00.0,34.1,27.0,05.4,0000.0,0000.93,0002.54,0000.67
2021-12-13 06:22:00,,0823.7,4.99,0.00,25.2,24.5,00.0,34.1,27.0,05.3,0000.0,0000.96,0002.73,0000.68
2021-12-13 06:23:00,,0823.7,5.01,0.00,25.2,24.4,00.0,34.1,27.0,05.3,0000.0,0000.97,0002.65,0000.68
2021-12-13 06:24:00,,0823.8,4.99,0.00,25.2,24.5,00.0,34.2,27.0,05.4,0000.0,0000.95,0001.93,0000.66
2021-12-13 06:25:00,,0823.8,5.01,0.00,25.2,24.5,00.0,34.2,27.0,05.4,0000.0,0000.93,0002.15,0000.66
2021-12-13 06:26:00,,0823.8,4.99,0.00,25.2,24.5,00.0,34.2,26.9,05.4,0000.0,0000.93,0002.95,0000.65
2021-12-13 06:27:00,,0823.8,4.99,0.00,25.2,24.4,00.0,34.2,26.9,05.4,0000.0,0000.94,0003.06,0000.64
2021-12-13 06:28:00,,0823.8,5.01,0.00,25.2,24.4,00.0,34.2,26.9,05.4,0000.0,0000.93,0002.98,0000.65
2021-12-13 06:29:00,,0823.8,5.00,0.00,25.2,24.4,00.0,34.2,26.9,05.4,0000.0,0000.93,0003.56,0000.65
2021-12-13 06:30:00,,0823.8,5.01,0.00,25.2,24.4,00.0,34.2,26.9,05.4,0000.0,0000.94,0003.87,0000.66
2021-12-13 06:31:00,,0823.8,5.01,0.00,25.2,24.4,00.0,34.2,26.9,05.4,0000.0,0000.96,0003.81,0000.68
2021-12-13 06:32:00,,0823.8,5.00,0.00,25.2,24.4,00.0,34.2,26.9,05.4,0000.0,0001.01,0003.84,0000.69
2021-12-13 06:33:00,,0823.8,5.01,0.00,25.2,24.4,00.0,34.2,26.9,05.4,0000.0,0001.04,0003.79,0000.70
2021-12-13 06:34:00,,0823.8,4.99,0.00,25.2,24.4,00.0,34.2,26.9,05.4,0000.0,0001.05,0003.79,0000.71
2021-12-13 06:35:00,,0823.8,5.00,0.00,25.2,24.4,00.0,34.2,26.9,05.4,0000.0,0001.07,0004.00,0000.73
2021-12-13 06:36:00,,0823.8,5.01,0.00,25.2,24.4,00.0,34.2,26.9,05.4,0000.0,0001.07,0003.80,0000.73
2021-12-13 06:37:00,,0823.7,4.99,0.00,25.2,24.3,00.0,34.2,26.9,05.4,0000.0,0001.11,0003.79,0000.72
2021-12-13 06:38:00,,0823.7,5.01,0.00,25.2,24.3,00.0,34.2,26.9,05.4,0000.0,0001.14,0004.27,0000.74
2021-12-13 06:39:00,,0823.8,5.01,0.00,25.2,24.4,00.0,34.2,26.9,05.3,0000.0,0001.15,0005.60,0000.73
2021-12-13 06:40:00,,0823.8,4.99,0.00,25.2,24.4,00.0,34.2,26.9,05.3,0000.0,0001.17,0006.01,0000.74
2021-12-13 06:41:00,,0823.8,5.01,0.00,25.2,24.4,00.0,34.2,26.9,05.3,0000.0,0001.19,0005.89,0000.73
2021-12-13 06:42:00,,0823.8,5.00,0.00,25.2,24.4,00.0,34.2,26.9,05.3,0000.0,0001.14,0005.86,0000.72
2021-12-13 06:43:00,,0823.8,5.00,0.00,25.2,24.3,00.0,34.2,26.9,05.3,0000.0,0001.10,0005.87,0000.71
2021-12-13 06:44:00,,0823.8,5.01,0.00,25.2,24.3,00.0,34.2,26.9,05.4,0000.0,0001.07,0005.78,0000.70
2021-12-13 06:45:00,,0823.8,4.99,0.00,25.2,24.3,00.0,34.2,26.9,05.4,0000.0,0001.09,0005.84,0000.70
2021-12-13 06:46:00,,0823.9,5.01,0.00,25.2,24.3,00.0,34.2,26.8,05.4,0000.0,0001.08,0005.77,0000.69
2021-12-13 06:47:00,,0824.0,4.98,0.00,25.2,24.3,00.0,34.2,26.9,05.4,0000.0,0001.10,0006.11,0000.69
2021-12-13 06:48:00,,0824.0,5.01,0.00,25.2,24.3,00.0,34.2,26.9,05.4,0000.0,0001.10,0005.62,0000.70
2021-12-13 06:49:00,,0823.9,5.00,0.00,25.2,24.3,00.0,34.2,26.9,05.4,0000.0,0001.06,0004.95,0000.69
2021-12-13 06:50:00,,0824.0,5.00,0.00,25.2,24.3,00.0,34.2,26.9,05.4,0000.0,0001.04,0003.71,0000.68
2021-12-13 06:51:00,,0824.0,5.00,0.00,25.2,24.3,00.0,34.2,26.9,05.4,0000.0,0001.00,0002.60,0000.68
2021-12-13 06:52:00,,0824.0,5.00,0.00,25.2,24.3,00.0,34.2,26.9,05.4,0000.0,0000.95,0002.15,0000.66
2021-12-13 06:53:00,,0824.0,5.00,0.00,25.2,24.3,00.0,34.2,26.9,05.3,0000.0,0000.95,0002.11,0000.65
2021-12-13 06:54:00,,0824.0,5.00,0.00,25.2,24.3,00.0,34.2,26.9,05.3,0000.0,0000.95,0001.97,0000.65
2021-12-13 06:55:00,,0823.9,5.01,0.00,25.2,24.3,00.0,34.2,26.9,05.3,0000.0,0000.95,0002.06,0000.64
2021-12-13 06:56:00,,0823.9,4.99,0.00,25.2,24.3,00.0,34.2,26.9,05.3,0000.0,0000.92,0002.01,0000.63
2021-12-13 06:57:00,,0823.9,5.00,0.00,25.2,24.3,00.0,34.2,26.8,05.3,0000.0,0000.90,0001.93,0000.63
2021-12-13 06:58:00,,0823.9,5.00,0.00,25.2,24.3,00.0,34.2,26.8,05.3,0000.0,0000.89,0001.56,0000.63
2021-12-13 06:59:00,,0823.9,5.01,0.00,25.2,24.3,00.0,34.2,26.9,05.3,0000.0,0000.84,0001.40,0000.62
